User: anonymous   Login
Location: Vancouver
(49.2500°N, 123.1330°W)
Time: 07:27:57
(UTC-07:00)
Language:

CZ-2C R/B - Orbit

View from above orbital plane
View from above orbital plane
View from above satellite
View from above satellite

Ground track
Ground track

The orbit data is extracted from the following two-line orbital elements,

1 28480U 04046B   17204.89317623 -.00000020 +00000-0 +73693-5 0  9995
2 28480 098.1969 298.7210 0143222 116.0724 020.2528 14.25643400659446
Epoch (UTC): 23 July 2017 21:26:10
Eccentricity: 0.0143222
inclination: 98.1969°
perigee height: 703 km
apogee height: 909 km
right ascension of ascending node: 298.7210°
argument of perigee: 116.0724°
revolutions per day: 14.25643400
mean anomaly at epoch: 20.2528°
orbit number at epoch: 65944

The dashed part of the orbit path shows where the satellite is in the earth's shadow,  

DLR